User: anonymous   Login
Location: Unspecified
(30.8073°N, 0.0000°E)
Time: 08:37:03
(UTC+00:00)
Language:

PRISM - Orbit

View from above orbital plane
View from above orbital plane
View from above satellite
View from above satellite

Ground track
Ground track

The orbit data is extracted from the following two-line orbital elements,

1 33493U 09002B   19230.76848175 -.00000247 +00000-0 -15982-4 0  9998
2 33493 098.1201 154.0392 0015102 346.4145 013.6667 14.96701430574274
Epoch (UTC): 18 August 2019 18:26:36
Eccentricity: 0.0015102
inclination: 98.1201°
perigee height: 566 km
apogee height: 587 km
right ascension of ascending node: 154.0392°
argument of perigee: 346.4145°
revolutions per day: 14.96701430
mean anomaly at epoch: 13.6667°
orbit number at epoch: 57427

The dashed part of the orbit path shows where the satellite is in the earth's shadow,  

DLR